Location: Adrasan
(36.3319°N, 30.4314°E)
Time: 06:34:01
(UTC+00:00)

Cosmos 1420 Rocket - Pass Details

Date: 09 December 2023
Orbit: 753 x 778 km, 74.0° (Epoch: 29 February)

Event Time Altitude Azimuth Distance (km) Brightness Sun altitude
Rises 15:28:36 0° 198° (SSW) 3,211 7.9 -9.1°
Reaches altitude 10° 15:30:57 10° 199° (SSW) 2,293 7.1 -9.6°
Maximum altitude 15:36:10 83° 287° (WNW) 780 4.1 -10.6°
Drops below altitude 10° 15:41:28 10° 16° (NNE) 2,324 6.2 -11.6°
Enters shadow 15:43:49 - 17° (NNE) 3,237 6.9 -12.0°
